Location: Castelbiague
(43.0361°N, 0.9246°E)
Time: 09:08:27
(UTC+00:00)

Cosmos 1455 - Pass Details

Date: 17 June 2021
Orbit: 496 x 522 km, 82.5° (Epoch: 01 August)

Event Time Altitude Azimuth Distance (km) Brightness Sun altitude
Rises 23:15:03 0° 348° (NNW) 2,646 7.3 -22.8°
Reaches altitude 10° 23:17:13 10° 346° (NNW) 1,749 6.0 -22.9°
Enters shadow 23:20:46 63° 289° (WNW) 578 2.4 -23.0°
